Location: Corralito
(10.2667°N, 66.9500°W)
Time: 19:23:49
(UTC+00:00)

YAOGAN 3 - Pass Details

Date: 23 March 2023
Orbit: 619 x 621 km, 97.9° (Epoch: 09 June)

Event Time Altitude Azimuth Distance (km) Brightness Sun altitude
Rises 23:15:31 0° 165° (SSE) 2,883 7.8 -9.9°
Reaches altitude 10° 23:17:42 10° 163° (SSE) 1,977 7.0 -10.4°
Maximum altitude 23:21:59 75° 79° (E) 641 4.5 -11.5°
Drops below altitude 10° 23:26:17 10° 353° (N) 1,978 7.3 -12.6°
Sets 23:28:28 0° 351° (N) 2,883 8.2 -13.1°
